This demonstration page uses our WeatherBlox Daily Observations layout. Learn more.

Left ArrowRight Arrow

Hourly Observations for September 24, 2021

Temp ( °F °C ) Dew Point ( °F °C ) Humidity (%) Winds ( mph kmh ) Pressure ( in mb ) Visibility ( mi km ) Precip ( " mm )
12:15 am 00:15 Clear 61 16.1 46 8 59 59 S 7 11 29.85 1011 10 16 N/A
12:35 am 00:35 Clear 61 16 46 8 59 59 SSW 8 13 29.85 1011 10 16 N/A
12:55 am 00:55 Clear 59 15.2 46 7.9 62 62 N N/A 29.86 1011 10 16 N/A
1:15 am 01:15 Clear 60 15.5 46 8 61 61 S 6 9 29.86 1011 10 16 N/A
1:35 am 01:35 Clear 58 14.6 46 8 65 65 N N/A 29.85 1011 10 16 N/A
1:55 am 01:55 Clear 55 12.7 47 8.5 76 76 NW 6 9 29.87 1011 10 16 N/A
2:15 am 02:15 Clear 54 12.2 47 8.6 79 79 NW 3 6 29.87 1012 10 16 N/A
2:35 am 02:35 Clear 55 12.5 48 8.7 78 78 WNW 8 13 29.88 1012 10 16 N/A
2:55 am 02:55 Clear 56 13.2 49 9.4 78 78 NW 7 11 29.87 1012 10 16 N/A
3:15 am 03:15 Clear 57 14 49 9.6 75 75 NW 6 9 29.87 1011 10 16 N/A
3:35 am 03:35 Clear 58 14.6 49 9.6 72 72 NW 5 7 29.86 1011 10 16 N/A
3:55 am 03:55 Clear 59 15 49 9.6 70 70 NW 6 9 29.86 1011 10 16 N/A
4:15 am 04:15 Clear 60 15.5 49 9.5 68 68 NW 7 11 29.86 1011 10 16 N/A
4:35 am 04:35 Clear 60 15.3 49 9.4 68 68 NW 8 13 29.86 1011 10 16 N/A
4:55 am 04:55 Clear 60 15.6 49 9.3 66 66 NW 8 13 29.86 1011 10 16 N/A
5:15 am 05:15 Clear 62 16.5 48 9.1 62 62 NNW 13 20 29.86 1011 10 16 N/A
5:35 am 05:35 Clear 62 16.4 48 9 62 62 NW 10 17 29.88 1012 10 16 N/A
5:55 am 05:55 Clear 61 16.2 48 8.8 62 62 NNW 12 19 29.88 1012 10 16 N/A
6:15 am 06:15 Clear 60 15.8 48 8.7 63 63 NW 9 15 29.90 1013 10 16 N/A
6:35 am 06:35 Clear 60 15.5 47 8.5 63 63 NW 9 15 29.93 1013 10 16 N/A
6:55 am 06:55 Clear 59 14.8 47 8.1 64 64 NW 7 11 29.93 1014 10 16 N/A
7:15 am 07:15 Clear 59 15 47 8.2 64 64 NNW 10 17 29.93 1014 10 16 N/A
7:35 am 07:35 Sunny 60 15.3 47 8.3 63 63 N 12 19 29.94 1014 10 16 N/A
7:55 am 07:55 Sunny 60 15.5 47 8.5 63 63 NNW 9 15 29.95 1014 10 16 N/A
8:15 am 08:15 Sunny 61 15.9 47 8.3 61 61 NNW 13 20 29.97 1015 10 16 N/A
8:35 am 08:35 Sunny 61 16.3 47 8.1 59 59 N 14 22 29.97 1015 10 16 N/A
8:55 am 08:55 Sunny 62 16.5 47 8.2 58 58 N 12 19 29.99 1015 10 16 N/A
9:15 am 09:15 Sunny 63 17.2 47 8.4 56 56 N 12 19 29.99 1016 10 16 N/A
9:35 am 09:35 Sunny 64 18 46 8 52 52 N 15 24 29.98 1015 10 16 N/A
9:55 am 09:55 Sunny 65 18.5 46 7.9 50 50 N 14 22 29.99 1016 10 16 N/A
10:15 am 10:15 Sunny 65 18.3 46 7.9 51 51 N 13 20 30.00 1016 10 16 N/A
10:35 am 10:35 undefined N/A N/A N/A undefined N/A N/A N/A N/A
10:55 am 10:55 undefined N/A N/A N/A undefined N/A N/A N/A N/A
11:15 am 11:15 undefined N/A N/A N/A undefined N/A N/A N/A N/A
11:35 am 11:35 undefined N/A N/A N/A undefined N/A N/A N/A N/A
11:55 am 11:55 Sunny 67 19.7 45 7.3 45 45 N 13 20 30.01 1016 10 16 N/A
12:15 pm 12:15 Partly Cloudy 68 20 45 7.2 44 44 N 14 22 30.02 1016 10 16 N/A
12:35 pm 12:35 Mostly Cloudy 68 20.2 45 7.3 43 43 N 13 20 30.02 1016 10 16 N/A
12:55 pm 12:55 Partly Cloudy 68 20.2 44 6.9 42 42 N 15 24 30.03 1017 10 16 N/A
1:15 pm 13:15 Partly Cloudy 69 20.7 46 7.5 43 43 N 14 22 30.01 1016 10 16 N/A
1:35 pm 13:35 Sunny 71 21.6 46 7.6 41 41 N 16 26 30.01 1016 10 16 N/A
1:55 pm 13:55 Sunny 68 20.1 47 8.3 47 47 N 16 26 30.04 1017 10 16 N/A
2:15 pm 14:15 Sunny 68 19.9 47 8.2 47 47 N 14 22 30.04 1017 10 16 N/A
2:35 pm 14:35 Sunny 69 20.6 47 8.2 45 45 N 17 28 30.03 1017 10 16 N/A
2:55 pm 14:55 Sunny 69 20.7 47 8.1 44 44 N 18 30 30.04 1017 10 16 N/A
3:15 pm 15:15 Sunny 69 20.8 47 8.3 45 45 N 16 26 30.03 1017 10 16 N/A
3:35 pm 15:35 Sunny 69 20.8 47 8.3 45 45 NNE 14 22 30.04 1017 10 16 N/A
3:55 pm 15:55 Sunny 69 20.4 47 8.5 46 46 NNE 14 22 30.04 1017 10 16 N/A
4:15 pm 16:15 Sunny 69 20.7 47 8.1 44 44 NNE 15 24 30.04 1017 10 16 N/A
4:35 pm 16:35 Partly Cloudy 69 20.7 47 8.6 46 46 N 8 13 30.04 1017 10 16 N/A
4:55 pm 16:55 Partly Cloudy 67 19.3 47 8.2 49 49 N 10 17 30.06 1018 10 16 N/A
5:15 pm 17:15 Sunny 66 18.7 47 8.5 52 52 N 8 13 30.07 1018 10 16 N/A
5:35 pm 17:35 Partly Cloudy 65 18.5 47 8.5 52 52 N 8 13 30.08 1019 10 16 N/A
5:55 pm 17:55 Partly Cloudy 64 18 47 8.2 53 53 N 8 13 30.08 1019 10 16 N/A
6:15 pm 18:15 Partly Cloudy 64 17.6 48 8.7 56 56 N 5 7 30.09 1019 10 16 N/A
6:35 pm 18:35 Partly Cloudy 63 17.2 48 9 59 59 N N/A 30.10 1019 10 16 N/A
6:55 pm 18:55 Sunny 61 16.3 49 9.5 64 64 N N/A 30.11 1020 10 16 N/A
7:15 pm 19:15 Partly Cloudy 60 15.8 49 9.7 67 67 N N/A 30.11 1020 10 16 N/A
7:35 pm 19:35 Partly Cloudy 59 14.8 49 9.7 72 72 N N/A 30.12 1020 10 16 N/A
7:55 pm 19:55 Partly Cloudy 58 14.5 49 9.7 73 73 N N/A 30.12 1020 10 16 N/A
8:15 pm 20:15 Partly Cloudy 57 14 49 9.5 75 75 N N/A 30.14 1021 10 16 N/A
8:35 pm 20:35 Clear 58 14.2 48 9.1 72 72 SW 3 6 30.14 1021 10 16 N/A
8:55 pm 20:55 Clear 56 13.4 48 8.8 74 74 SW 3 6 30.14 1021 10 16 N/A
9:15 pm 21:15 Clear 55 12.8 48 8.8 77 77 SSW 5 7 30.15 1021 10 16 N/A
9:35 pm 21:35 Clear 54 12.4 48 8.8 79 79 SW 3 6 30.15 1021 10 16 N/A
9:55 pm 21:55 Partly Cloudy 54 12 48 8.7 80 80 N N/A 30.15 1021 10 16 N/A
10:15 pm 22:15 Partly Cloudy 55 12.7 48 8.8 77 77 SW 3 6 30.15 1021 10 16 N/A
10:35 pm 22:35 Mostly Cloudy 54 12 47 8.6 80 80 N N/A 30.16 1021 10 16 N/A
10:55 pm 22:55 Partly Cloudy 54 12 47 8.5 79 79 SW 3 6 30.16 1021 10 16 N/A
11:15 pm 23:15 Clear 52 11.1 47 8.3 83 83 N N/A 30.16 1021 10 16 N/A
11:35 pm 23:35 Clear 51 10.4 46 7.9 85 85 N N/A 30.17 1022 10 16 N/A
11:55 pm 23:55 Clear 51 10.5 47 8.1 85 85 N N/A 30.17 1022 10 16 N/A

Powered by AerisWeather